TimeAKDT,TemperatureF,Dew PointF,Humidity,Sea Level PressureIn,VisibilityMPH,Wind Direction,Wind SpeedMPH,Gust SpeedMPH,PrecipitationIn,Events,Conditions,WindDirDegrees,DateUTC
12:01 AM,1.9,-2.0,83,30.33,2.5,East,18.4,-,0.00,Snow,Light Snow,90,2013-04-30 08:01:00
12:09 AM,1.4,-2.2,85,30.33,6.0,East,18.4,-,0.00,Snow,Light Snow,90,2013-04-30 08:09:00
1:01 AM,-0.0,-4.0,83,30.34,9.0,East,17.3,-,0.00,Snow,Light Snow,90,2013-04-30 09:01:00
2:01 AM,-2.0,-5.1,87,30.36,10.0,East,17.3,-,0.00,,Unknown,90,2013-04-30 10:01:00
3:01 AM,-2.9,-6.0,87,30.36,10.0,East,18.4,-,N/A,,Unknown,90,2013-04-30 11:01:00
4:01 AM,-4.0,-7.1,87,30.37,10.0,East,15.0,-,N/A,,Unknown,80,2013-04-30 12:01:00
5:01 AM,-4.0,-8.0,83,30.38,10.0,East,15.0,-,N/A,,Unknown,80,2013-04-30 13:01:00
6:01 AM,-4.0,-8.0,83,30.39,10.0,ENE,11.5,-,N/A,,Unknown,70,2013-04-30 14:01:00
7:01 AM,-5.1,-9.0,83,30.40,10.0,ENE,9.2,-,0.00,,Unknown,70,2013-04-30 15:01:00
8:01 AM,-2.9,-7.1,82,30.41,10.0,ENE,9.2,-,N/A,,Unknown,70,2013-04-30 16:01:00
9:01 AM,-0.9,-5.1,83,30.41,10.0,East,6.9,-,N/A,,Unknown,80,2013-04-30 17:01:00
10:01 AM,1.0,-4.0,79,30.42,10.0,East,9.2,-,N/A,,Unknown,80,2013-04-30 18:01:00
11:01 AM,1.0,-4.0,79,30.42,10.0,ENE,10.4,-,N/A,,Unknown,70,2013-04-30 19:01:00
12:01 PM,1.0,-2.9,83,30.43,10.0,ENE,10.4,-,N/A,,Unknown,60,2013-04-30 20:01:00
1:01 PM,3.0,-2.0,80,30.43,10.0,ENE,10.4,-,N/A,,Unknown,70,2013-04-30 21:01:00
2:01 PM,3.9,-0.9,80,30.43,10.0,East,9.2,-,N/A,,Unknown,90,2013-04-30 22:01:00
3:01 PM,3.9,-2.0,76,30.44,10.0,East,8.1,-,N/A,,Unknown,90,2013-04-30 23:01:00
4:01 PM,5.0,-0.9,76,30.43,10.0,ESE,6.9,-,N/A,,Unknown,110,2013-05-01 00:01:00
5:01 PM,5.0,-0.9,76,30.42,10.0,East,4.6,-,N/A,,Unknown,90,2013-05-01 01:01:00
6:01 PM,7.0,-0.0,73,30.41,10.0,Calm,Calm,-,N/A,,Unknown,0,2013-05-01 02:01:00
7:01 PM,8.1,1.0,73,30.40,10.0,Calm,Calm,-,N/A,,Unknown,0,2013-05-01 03:01:00
8:01 PM,8.1,-0.9,67,30.40,10.0,Calm,Calm,-,N/A,,Unknown,0,2013-05-01 04:01:00
9:01 PM,3.0,-2.9,76,30.39,10.0,Calm,Calm,-,N/A,,Unknown,0,2013-05-01 05:01:00
10:01 PM,1.0,-5.1,75,30.39,10.0,Calm,Calm,-,N/A,,Unknown,0,2013-05-01 06:01:00
11:01 PM,-2.9,-8.0,79,30.38,10.0,West,5.8,-,N/A,,Unknown,270,2013-05-01 07:01:00